Showing default

IRIDIUM 39, 25042

Orbit data source: Space-Track

IRIDIUM 39, 25042 is a payload satellite owned by Iridium (US) in LEO that was launched on Sun, 09 Nov 1997 UTC via a DELTA 7920-10C launch vehicle from the Air Force Western Test Range (AFWTR). Payload-class satellites include a variety of spacecraft equipped with specific instruments for various scientific and technological missions. These include communications satellites like Starlink; space stations such as the ISS; scientific satellites like the Hubble; Earth observation satellites from companies like Planet Labs, Umbra, and HawkEye 360; GPS; miniature CubeSats for education and research; and military/defense satellites.

Loading next visibility...
Identifier
25042, 1997-069D
Orbit
LEO
Country
Flag of USUS
Related business
Manufacturer
MOTO/LMMS
Mission
Non-operational Commercial Communications
Bus & Motor
LM700, Unknown motor
Mass
662 kg wet, 556 kg dry
Launch date (UTC)
1997-11-09 (28 years ago)
Launch vehicle
DELTA 7920-10C
Launch site
Air Force Western Test Range (AFWTR)
Object type
Payload
Rocket body
Debris
Shape & HBR
Box + 2 Pan, 4.2 m
Radar Cross Section
5.666 m², Large (>1 m²)

Expand to show TLE details & history
Last TLE update: 15 hours ago

TLE from 15 hours ago
0 IRIDIUM 39
1 25042U 97069D   25259.19885028  .00000596  00000-0  15049-3 0  9990
2 25042  86.3986 172.1489 0018275  10.0377 350.1189 14.49327021462145
Epoch: 2025-09-16T04:46Z
TLE epoch observation values (Epoch: 2025-09-16T04:46:20.664Z)
Latitude
0.00005°
Longitude
105.17022°
Altitude
718.124 km
Speed
7.503 km/s
True Right ascension
11h 28m 35s
True Declination
0° 00' 00"
Sunlit
Object was in daylight at epoch
Visualization orbit readout
Latitude
Unknown
Longitude
Unknown
Altitude
Unknown
Speed
Unknown
Apparent Right ascension
Unknown
Apparent Declination
Unknown
Sunlit
N/A
Visualization observer readout
Local Sidereal Time
12:00:19
Azimuth
Unknown
Elevation
Unknown
Doppler factor
Unknown
Orbital elements
Apogee altitude
737.771 km
Perigee altitude
711.81 km
Semi-major axis
7,102.927 km
Eccentricity
0.00183
Inclination
86.3986°
RAAN
172.1489°
Arg. of periapsis
10.0377°
True anomaly
350.08288°
Mean anomaly
350.1189°
Eccentric anomaly
350.1009°
Mean motion
3.62566 °/min
Orbital period
99.29 mins
BSTAR
0.00015049
Loading maneuver chart data...
Computing Atmospheric mass density...
Loading historical data...
Loading historical data...
Loading historical data...
Loading historical data...
Loading historical data...
Loading historical data...
Loading historical data...

Documentation

Showing up to 5 results
|